Date String (YYYY-MM-DD hh:mm:ss) UTC,Instrument flags,absolute air pressure of the measurement (hPa),sample flow rate (lpm),inlet stack bypass flow (lpm),air temperature of the measurement (°C),ambient temperature measured by the external sensor (°C),aerosol sample conditioner tube jacket temperature (°C),OPC LED temperature (°C),internal box temperature (°C),relative humidity of the measurement (%),span deviation,mass concentration of particles derived from Lorenz-Mie calculation of OPC scattering (μg/m³),mass concentration of particles derived from Lorenz-Mie calculation of OPC scattering (μg/m³),mass concentration of particles derived from Lorenz-Mie calculation of OPC scattering (μg/m³)
DateTimeUTC,F1_M11,P_M11,Q1_M11,Q2_M11,T1_M11,T2_M11,T3_M11,T4_M11,T5_M11,U1_M11,ZSPAN_M11,X0_M11,X2_M11,X1_M11
2023-08-28 07:00:00,SystemResetWarning,0836.4,5.03,000.00,029.8,026.5,000.0,038.0,030.3,35.9,0000.0,0007.23,0004.22,0003.99
2023-08-28 07:01:00,SystemResetWarning,0836.4,4.99,000.00,030.1,026.7,000.0,038.0,030.5,35.3,0000.0,0007.29,0004.23,0003.99
2023-08-28 07:02:00,SystemResetWarning,0836.4,5.00,000.00,030.4,026.9,000.0,038.0,030.7,34.5,0000.0,0007.39,0004.26,0004.00
2023-08-28 07:03:00,SystemResetWarning,0836.4,4.99,000.00,030.6,027.0,000.0,038.1,030.7,34.0,0000.0,0007.44,0004.27,0004.00
2023-08-28 07:04:00,SystemResetWarning,0836.4,5.01,000.00,030.7,027.2,000.0,038.2,030.7,33.8,0000.0,0007.41,0004.29,0004.01
2023-08-28 07:05:00,SystemResetWarning,0836.4,5.01,000.00,030.8,027.3,000.0,038.2,030.7,33.7,0000.0,0007.02,0004.29,0004.01
2023-08-28 07:06:00,SystemResetWarning,0836.4,5.00,000.00,030.8,027.4,000.0,038.3,030.7,33.8,0000.0,0007.07,0004.31,0004.03
2023-08-28 07:07:00,SystemResetWarning,0836.5,5.00,000.00,030.8,027.5,000.0,038.4,030.8,33.9,0000.0,0007.19,0004.36,0004.05
2023-08-28 07:08:00,SystemResetWarning,0836.5,5.00,000.00,030.8,027.6,000.0,038.5,030.8,33.8,0000.0,0007.13,0004.38,0004.07
2023-08-28 07:09:00,SystemResetWarning,0836.5,5.00,000.00,030.8,027.6,000.0,038.6,030.8,33.8,0000.0,0007.01,0004.41,0004.10
2023-08-28 07:10:00,SystemResetWarning,0836.5,5.00,000.00,030.8,027.6,000.0,038.6,030.9,33.9,0000.0,0006.90,0004.42,0004.11
2023-08-28 07:11:00,SystemResetWarning,0836.5,5.00,000.00,030.8,026.1,000.0,038.5,030.7,34.0,0000.0,0007.02,0004.43,0004.11
2023-08-28 07:12:00,SystemResetWarning,0836.4,5.00,000.00,030.8,024.4,000.0,038.4,030.4,34.0,0000.0,0007.09,0004.45,0004.12
2023-08-28 07:13:00,SystemResetWarning,0836.5,5.00,000.00,030.6,023.8,000.0,038.3,030.1,34.2,0000.0,0006.98,0004.43,0004.11
2023-08-28 07:14:00,SystemResetWarning,0836.4,5.01,000.00,030.4,024.0,000.0,038.3,029.9,34.6,0000.0,0006.92,0004.42,0004.10
2023-08-28 07:15:00,SystemResetWarning,0836.4,4.98,000.00,030.2,024.4,000.0,038.4,029.9,35.0,0000.0,0006.83,0004.40,0004.09
2023-08-28 07:16:00,SystemResetWarning,0836.4,5.03,000.00,030.2,024.9,000.0,038.4,030.1,35.1,0000.0,0006.99,0004.43,0004.10
2023-08-28 07:17:00,SystemResetWarning,0836.4,4.97,000.00,030.4,025.3,000.0,038.4,030.2,34.6,0000.0,0007.16,0004.44,0004.10
2023-08-28 07:18:00,SystemResetWarning,0836.4,5.01,000.00,030.4,025.7,000.0,038.4,030.3,34.4,0000.0,0007.26,0004.44,0004.08
2023-08-28 07:19:00,SystemResetWarning,0836.4,5.01,000.00,030.5,026.0,000.0,038.4,030.4,34.4,0000.0,0007.13,0004.41,0004.06
2023-08-28 07:20:00,SystemResetWarning,0836.4,4.99,000.00,030.5,026.3,000.0,038.4,030.4,34.3,0000.0,0007.03,0004.38,0004.04
2023-08-28 07:21:00,SystemResetWarning,0836.4,5.00,000.00,030.4,026.5,000.0,038.4,030.4,34.2,0000.0,0007.13,0004.38,0004.04
2023-08-28 07:22:00,SystemResetWarning,0836.4,5.01,000.00,030.4,026.7,000.0,038.5,030.4,34.1,0000.0,0007.09,0004.38,0004.03
2023-08-28 07:23:00,SystemResetWarning,0836.4,5.00,000.00,030.4,026.9,000.0,038.5,030.5,34.2,-000.0,0006.98,0004.36,0004.02
2023-08-28 07:24:00,SystemResetWarning,0836.4,4.99,000.00,030.4,027.0,000.0,038.5,030.5,34.6,-000.8,0007.01,0004.37,0004.02
2023-08-28 07:25:00,SystemResetWarning,0836.5,4.99,000.00,030.4,027.2,000.0,038.5,030.6,34.6,-000.3,0006.91,0004.36,0004.04
2023-08-28 07:26:00,SystemResetWarning,0836.5,5.00,000.00,030.4,027.3,000.0,038.6,030.6,34.8,0000.3,0006.90,0004.34,0004.04
2023-08-28 07:27:00,SystemResetWarning,0836.5,4.99,000.00,030.4,027.4,000.0,038.6,030.6,34.9,0000.6,0006.73,0004.30,0004.04
2023-08-28 07:28:00,SystemResetWarning,0836.5,5.00,000.00,030.4,027.4,000.0,038.6,030.7,34.9,0000.1,0006.70,0004.34,0004.05
2023-08-28 07:29:00,SystemResetWarning,0836.5,4.99,000.00,030.3,027.5,000.0,038.6,030.7,35.0,0000.1,0006.65,0004.34,0004.07
2023-08-28 07:30:00,SystemResetWarning,0836.4,5.01,000.00,030.4,027.6,000.0,038.6,030.7,35.0,0000.0,0006.61,0004.34,0004.08
2023-08-28 07:31:00,SystemResetWarning,0836.4,5.00,000.00,030.5,027.6,000.0,038.6,030.8,34.8,0000.0,0006.58,0004.34,0004.08
2023-08-28 07:32:00,SystemResetWarning,0836.4,4.98,000.00,030.6,027.7,000.0,038.6,030.9,34.5,0000.1,0006.46,0004.34,0004.09
2023-08-28 07:33:00,SystemResetWarning,0836.4,5.02,000.00,030.7,027.7,000.0,038.6,030.9,34.4,0000.0,0006.42,0004.35,0004.10
2023-08-28 07:34:00,SystemResetWarning,0836.5,4.99,000.00,030.8,027.7,000.0,038.7,030.9,34.3,0000.0,0006.48,0004.38,0004.12
2023-08-28 07:35:00,SystemResetWarning,0836.5,4.99,000.00,030.8,027.2,000.0,038.6,030.8,34.3,0000.0,0006.57,0004.38,0004.12
2023-08-28 07:36:00,SystemResetWarning,0836.5,5.00,000.00,030.8,025.4,000.0,038.5,030.6,34.2,0000.0,0006.64,0004.39,0004.11
2023-08-28 07:37:00,SystemResetWarning,0836.5,5.02,000.00,030.7,024.7,000.0,038.4,030.4,34.3,0000.0,0007.14,0004.39,0004.11
2023-08-28 07:38:00,SystemResetWarning,0836.5,5.01,000.00,030.5,024.7,000.0,038.4,030.1,34.8,0000.0,0007.58,0004.40,0004.11
2023-08-28 07:39:00,SystemResetWarning,0836.5,4.98,000.00,030.3,025.0,000.0,038.5,030.1,35.2,0000.0,0007.49,0004.36,0004.10
2023-08-28 07:40:00,SystemResetWarning,0836.5,5.03,000.00,030.5,025.4,000.0,038.5,030.3,34.9,0000.0,0007.46,0004.36,0004.11
2023-08-28 07:41:00,SystemResetWarning,0836.6,4.96,000.00,030.6,025.8,000.0,038.5,030.5,34.6,0000.0,0007.47,0004.38,0004.12
2023-08-28 07:42:00,SystemResetWarning,0836.6,5.03,000.00,030.7,026.1,000.0,038.5,030.5,34.5,0000.0,0007.52,0004.40,0004.13
2023-08-28 07:43:00,SystemResetWarning,0836.6,5.00,000.00,030.7,026.4,000.0,038.6,030.6,34.3,0000.0,0007.61,0004.43,0004.13
2023-08-28 07:44:00,SystemResetWarning,0836.6,5.00,000.00,030.7,026.7,000.0,038.6,030.6,34.3,0000.0,0007.66,0004.45,0004.14
2023-08-28 07:45:00,SystemResetWarning,0836.6,5.00,000.00,030.7,026.9,000.0,038.6,030.6,34.3,0000.0,0007.71,0004.47,0004.14
2023-08-28 07:46:00,SystemResetWarning,0836.5,5.00,000.00,030.7,027.0,000.0,038.7,030.7,34.4,0000.0,0007.71,0004.49,0004.15
2023-08-28 07:47:00,SystemResetWarning,0836.5,5.00,000.00,030.6,027.2,000.0,038.7,030.7,34.5,0000.0,0007.69,0004.50,0004.16
2023-08-28 07:48:00,SystemResetWarning,0836.5,5.00,000.00,030.6,027.3,000.0,038.7,030.7,34.5,0000.0,0007.47,0004.52,0004.18
2023-08-28 07:49:00,SystemResetWarning,0836.5,5.00,000.00,030.6,027.4,000.0,038.7,030.7,34.5,0000.0,0007.08,0004.56,0004.20
2023-08-28 07:50:00,SystemResetWarning,0836.5,4.99,000.00,030.6,027.5,000.0,038.8,030.8,34.5,0000.9,0007.21,0004.60,0004.22
2023-08-28 07:51:00,SystemResetWarning,0836.5,5.00,000.00,030.6,027.6,000.0,038.8,030.8,34.5,0000.5,0007.20,0004.59,0004.22
2023-08-28 07:52:00,SystemResetWarning,0836.5,5.00,000.00,030.6,027.6,000.0,038.8,030.8,34.6,0000.7,0007.18,0004.57,0004.21
2023-08-28 07:53:00,SystemResetWarning,0836.4,5.01,000.00,030.5,027.7,000.0,038.8,030.8,34.7,0000.1,0007.24,0004.57,0004.21
2023-08-28 07:54:00,SystemResetWarning,0836.5,5.00,000.00,030.5,027.7,000.0,038.8,030.9,34.7,-000.6,0007.18,0004.55,0004.22
2023-08-28 07:55:00,SystemResetWarning,0836.5,4.99,000.00,030.5,026.6,000.0,038.7,030.7,34.8,-000.5,0007.17,0004.55,0004.22
2023-08-28 07:56:00,SystemResetWarning,0836.4,4.99,000.00,030.4,025.0,000.0,038.5,030.5,35.0,-001.0,0007.23,0004.56,0004.22
2023-08-28 07:57:00,SystemResetWarning,0836.4,5.02,000.00,030.4,024.5,000.0,038.4,030.3,35.2,-000.5,0007.15,0004.55,0004.22
2023-08-28 07:58:00,SystemResetWarning,0836.4,5.00,000.00,030.4,024.7,000.0,038.4,030.2,35.3,0000.9,0007.29,0004.58,0004.22
2023-08-28 07:59:00,SystemResetWarning,0836.5,5.00,000.00,030.6,025.1,000.0,038.4,030.4,34.9,0001.1,0007.38,0004.59,0004.23
